Mobile, AL

1:01 PM CST on February 10, 2016 (GMT -0600)
Mobile Downtown

Weather History for KBFM - September, 2012

Change the Weather History Date:

Sunday, September 23, 2012

  Actual Average Record
Temperature  
Mean Temperature 80 °F -  
Max Temperature 91 °F 83 °F 93 °F (2000)
Min Temperature 68 °F 65 °F 48 °F (1999)
Cooling Degree Days 14    
Growing Degree Days 30 (Base 50)    
Moisture  
Dew Point 65 °F    
Average Humidity 67    
Maximum Humidity 91    
Minimum Humidity 36    
Precipitation  
Precipitation 0.01 in - - ()
Sea Level Pressure  
Sea Level Pressure 30.13 in    
Wind  
Wind Speed 4 mph (NNW)    
Max Wind Speed 8 mph    
Max Gust Speed -    
Visibility 10 miles    
Events      
Averages and records for this station are not official NWS values.
T = Trace of Precipitation, MM = Missing Value Source: NWS Daily Summary

Daily Weather History Graph

Daily Weather History Graph

Search for Another Location

Airport or City:

Trip Planner

Search our weather history database for the weather conditions in past years. The results will help you decide how hot, cold, wet, or windy it might be!

Date:

Astronomy

Sep. 23, 2012 Rise Set
Actual Time 6:41 AM CDT 6:46 PM CDT
Civil Twilight 6:17 AM CDT 7:10 PM CDT
Nautical Twilight 5:49 AM CDT 7:38 PM CDT
Astronomical Twilight 5:21 AM CDT 8:07 PM CDT
Moon 2:26 PM CDT (9/23) 12:15 AM CDT (9/23)
Length of Visible Light 12h 53m
Length of Day
12h 05m
First Quarter, 60% of the Moon is Illuminated
Sep 23
First Quarter
Sep 29
Full
Oct 8
Last Quarter
Oct 15
New
Oct 21
First Quarter

Hourly Weather History & Observations

Time (CDT) Temp. Heat Index Dew Point Humidity Pressure Visibility Wind Dir Wind Speed Gust Speed Precip Events Conditions
12:53 AM 73.9 °F - 71.1 °F 91% 30.10 in 9.0 mi West 3.5 mph - N/A   Clear
1:53 AM 71.1 °F - 68.0 °F 90% 30.09 in 10.0 mi WNW 3.5 mph - N/A   Clear
2:53 AM 70.0 °F - 66.9 °F 90% 30.09 in 8.0 mi Calm Calm - N/A   Clear
3:53 AM 69.1 °F - 66.0 °F 90% 30.09 in 7.0 mi Calm Calm - N/A   Clear
4:53 AM 70.0 °F - 66.0 °F 87% 30.11 in 10.0 mi NNW 4.6 mph - N/A   Clear
5:53 AM 69.1 °F - 66.0 °F 90% 30.13 in 9.0 mi NW 5.8 mph - N/A   Clear
6:53 AM 68.0 °F - 64.9 °F 90% 30.14 in 6.0 mi NNW 3.5 mph - N/A   Clear
7:53 AM 73.0 °F - 68.0 °F 84% 30.15 in 9.0 mi NW 3.5 mph - 0.01 in   Clear
8:53 AM 77.0 °F - 61.0 °F 58% 30.17 in 10.0 mi NNE 4.6 mph - N/A   Clear
9:53 AM 80.1 °F 81.1 °F 61.0 °F 52% 30.17 in 10.0 mi NNE 5.8 mph - N/A   Clear
10:53 AM 82.9 °F 83.2 °F 60.1 °F 46% 30.17 in 10.0 mi NNE 5.8 mph - N/A   Clear
11:53 AM 86.0 °F 85.7 °F 60.1 °F 41% 30.16 in 10.0 mi ENE 5.8 mph - N/A   Clear
12:53 PM 88.0 °F 88.7 °F 63.0 °F 43% 30.15 in 10.0 mi East 5.8 mph - N/A   Clear
1:53 PM 90.0 °F 90.6 °F 63.0 °F 40% 30.14 in 10.0 mi NE 8.1 mph - N/A   Clear
2:53 PM 91.0 °F 90.9 °F 61.0 °F 36% 30.12 in 10.0 mi North 5.8 mph - N/A   Clear
3:53 PM 89.1 °F 90.0 °F 63.0 °F 42% 30.11 in 10.0 mi ENE 6.9 mph - N/A   Clear
4:53 PM 89.1 °F 90.3 °F 64.0 °F 43% 30.10 in 10.0 mi Variable 3.5 mph - N/A   Clear
5:53 PM 87.1 °F 89.2 °F 66.0 °F 49% 30.10 in 10.0 mi NE 4.6 mph - N/A   Clear
6:53 PM 84.0 °F 85.8 °F 64.9 °F 53% 30.11 in 10.0 mi NE 5.8 mph - N/A   Clear
7:53 PM 80.1 °F 81.9 °F 64.9 °F 60% 30.13 in 10.0 mi SW 4.6 mph - N/A   Clear
8:53 PM 75.9 °F - 68.0 °F 76% 30.14 in 10.0 mi WSW 4.6 mph - N/A   Clear
9:53 PM 75.0 °F - 69.1 °F 82% 30.16 in 10.0 mi WSW 3.5 mph - N/A   Clear
10:53 PM 73.9 °F - 69.1 °F 85% 30.16 in 10.0 mi West 3.5 mph - N/A   Clear
11:53 PM 75.0 °F - 69.1 °F 82% 30.16 in 10.0 mi West 4.6 mph - N/A   Clear